Location: Quaker Farms
(41.4276°N, 73.1557°W)
Time: 19:41:50
(UTC+00:00)

S-56A Canister/Altair - Pass Details

Date: 18 June 2021
Orbit: 631 x 2501 km, 38.9° (Epoch: 30 July)

Event Time Altitude Azimuth Distance (km) Brightness Sun altitude
Exits shadow 09:23:59 - 228° (SW) 2,965 9.9 0.0°
Rises 09:24:03 0° 228° (SW) 2,939 9.8 0.0°
Reaches altitude 10° 09:26:31 10° 218° (SW) 2,000 9.1 0.4°
Maximum altitude 09:30:25 31° 155° (SSE) 1,129 8.4 1.0°
Drops below altitude 10° 09:34:46 10° 92° (E) 2,228 11.0 1.7°
Sets 09:37:39 0° 83° (E) 3,340 12.3 2.2°
